NOAA 16 DEB, 41652

Orbit data source: Space-Track

NOAA 16 DEB, 41652 is space debris in SSO originally from a launch on Thu, 21 Sep 2000 UTC launched from the Air Force Western Test Range (AFWTR). Debris objects in space refer to the collection of defunct objects orbiting the Earth. Examples of debris include non-operational satellites, rocket bodies, and fragments generated from explosions, collisions, or faulty payload assembly.

Loading next visibility...
Identifier
41652, 2000-055NR
Orbit
SSO
Country
Flag of USUS
Related business
Manufacturer
Unknown
Mission
Spacecraft
Bus & Motor
Unknown
Mass
Unknown
Launch date (UTC)
2000-09-21 (26 years ago)
Launch vehicle
Unknown
Launch site
Air Force Western Test Range (AFWTR)
Object type
Payload
Rocket body
Debris
Shape & HBR
Unknown shape, 0.1 m
Radar Cross Section
Medium (>0.1 m² and <1 m²)

Expand to show TLE details & history
Last TLE update: 4 days ago

TLE from 4 days ago
0 NOAA 16 DEB
1 41652U 00055NR  26232.28110642  .00010802  00000-0  28762-2 0  9995
2 41652  98.8771 352.2032 0029720 232.6642 127.1841 14.48419569534302
Epoch: 2026-08-20T06:44Z
TLE epoch observation values (Epoch: 2026-08-20T06:44:47.594Z)
Latitude
-0.00005°
Longitude
-77.61757°
Altitude
746.574 km
Speed
7.475 km/s
True Right ascension
23h 28m 48s
True Declination
0° 00' 00"
Sunlit
Object was in full shadow at epoch
Visualization orbit readout
Latitude
Unknown
Longitude
Unknown
Altitude
Unknown
Speed
Unknown
Apparent Right ascension
Unknown
Apparent Declination
Unknown
Sunlit
N/A
Visualization observer readout
Local Sidereal Time
02:11:13
Azimuth
Unknown
Elevation
Unknown
Doppler factor
Unknown
Orbital elements
Apogee altitude
749.063 km
Perigee altitude
706.825 km
Semi-major axis
7,106.081 km
Eccentricity
0.00297
Inclination
98.8771°
RAAN
352.2032°
Arg. of periapsis
232.6642°
True anomaly
127.45482°
Mean anomaly
127.1841°
Eccentric anomaly
127.31952°
Mean motion
3.62325 °/min
Orbital period
99.36 mins
BSTAR
0.0028762
Loading maneuver chart data...
Computing Atmospheric mass density...
Loading historical data...
Loading historical data...
Loading historical data...
Loading historical data...
Loading historical data...
Loading historical data...
Loading historical data...

Documentation

Showing up to 5 results
|